Weather in Tanahmerah

Indonesia     7°05′38″S   113°49′13″E
temp.,
°C
wind,
m/s
gust,
m/s
humid.,
%
clouds,
%
prec.,
mm/h
press.,
hPa
HPBL,
m
5 march, fri
fri500:00+24w3589100 0.6 1012135
03:00+23w3593100 0.6 1011169
06:00+23wnw4792100 0.1 1010198
09:00+24wnw3690100 0.6 1012229
12:00+25w1186100 0.0 1011146
15:00+28wnw1268100 0.0 1009549
18:00+28n216866 0.0 1008570
21:00+25wnw118283 0.0 101039
6 march, sat
sat600:00+24nnw1182100 0.0 101132
03:00+24w2382100 0.0 101050
06:00+24wnw2386100 0.0 100956
09:00+26w238599 0.0 1011193
12:00+28w227397 3.4 1011650
15:00+29nw446899 6.3 1009891
18:00+28nw457592 2.1 1008595
21:00+25nw238396 3.1 101056
7 march, sun
sun700:00+25w238592 0.5 101238
03:00+24w228661 0.6 101044
06:00+23wsw228747 0.0 100839
09:00+26w128270 0.0 1011136
12:00+30w226321 0.0 1011947
15:00+29nnw336754 2.3 1009754
18:00+27n78828 2.3 1008726
21:00+25n478828 4.4 1010220
8 march, mon
mon800:00+25wnw3688100 3.1 1012151
03:00+23sw4893100 6.4 1010262
06:00+23wsw2595100 0.7 1009252
09:00+24w2492100 0.7 1011237
12:00+28w337495 0.0 1012679
15:00+28wnw567493 1.7 1009923
18:00+27nw568098 0.9 1008628
21:00+25wnw368594 1.2 1010245
9 march, tue
tue900:00+25wnw228683 1.1 101141
03:00+24w248984 1.5 1010129
06:00+23w348897 1.8 100996
09:00+24sw128498 2.4 101187
12:00+26se3383100 0.8 1012347
15:00+23e349199 3.1 1009144
18:00+23ne3492100 1.8 1009139
21:00+23sw0192100 3.1 101131